Regional Weather Roundup
Issued by NWS

Home | Current Version | Previous Version | Graphics & Text | Print | Product List | Glossary On
Versions: 1 2 3 4 5 6 7 8 9 10 11 12 13 14 15 16 17 18 19 20 21 22 23 24 25 26 27 28 29 30 31 32 33 34 35 36 37 38 39 40 41 42 43 44 45 46 47 48 49 50
000
ASUS43 KOAX 200802
RWRNE

WEATHER ROUNDUP FOR NEBRASKA
NATIONAL WEATHER SERVICE OMAHA NE
300 AM CDT SUN APR 20 2014

NOTES: SATELLITE DATA IS BEING USED TO AUGMENT CLOUD COVER ABOVE
       12000 FEET.
       "FAIR" INDICATES FEW OR NO CLOUDS BELOW 12,000 FEET WITH NO
       SIGNIFICANT WEATHER AND/OR OBSTRUCTIONS TO VISIBILITY.

  * THESE STATIONS DO NOT REPORT WEATHER SUCH AS RAIN...SNOW OR FOG.

NEZ001>004-019>022-054>056-200900-
NEBRASKA PANHANDLE

CITY           SKY/WX    TMP DP  RH WIND       PRES   REMARKS
SCOTTSBLUFF    PTCLDY    47  35  63 E8        30.01F
ALLIANCE       CLEAR     40  34  79 S9        30.01F WCI  34
CHADRON        CLEAR     50  37  61 SE10      29.95F
SIDNEY         CLEAR     44  36  73 SW8       30.03F
$$

NEZ057>060-069>072-079>082-200900-
SOUTHWEST NEBRASKA

CITY           SKY/WX    TMP DP  RH WIND       PRES   REMARKS
NORTH PLATTE   CLEAR     42  38  85 NW5       29.99F
IMPERIAL       CLEAR     47  42  83 NW6       30.00F
LEXINGTON      MOCLDY    52  46  78 E3        29.97S
MCCOOK         MOCLDY    53  50  89 CALM      29.98F
$$

NEZ005>010-023>029-035>040-094-200900-
NORTH CENTRAL NEBRASKA

CITY           SKY/WX    TMP DP  RH WIND       PRES   REMARKS
VALENTINE      CLEAR     36  24  62 W7        30.03R WCI  30
AINSWORTH      CLEAR     44  28  54 CALM      30.02F
BROKEN BOW     PTCLDY    49  39  68 N6        29.98F
ORD            CLEAR     52  35  52 N5        29.96F
$$

NEZ041-046>049-061>064-073>077-083>087-200900-
SOUTH CENTRAL NEBRASKA

CITY           SKY/WX    TMP DP  RH WIND       PRES   REMARKS
GRAND ISLAND   CLOUDY    61  50  67 S10       29.95S
HASTINGS       CLOUDY    62  49  62 SW5       29.95S
KEARNEY *      CLOUDY    55  48  76 CALM      29.97S
YORK           CLOUDY    63  50  63 S10       29.96R
$$

NEZ011>018-030>034-042>045-200900-
NORTHEAST NEBRASKA

CITY           SKY/WX    TMP DP  RH WIND       PRES   REMARKS
NORFOLK        PTCLDY    56  44  64 NE3       29.95F
COLUMBUS *     PTCLDY    61  45  55 S6        29.97S
TEKAMAH        MOCLDY    64  44  48 S9        29.97S
$$

NEZ050>053-065>068-078-088>093-200900-
SOUTHEAST NEBRASKA

CITY           SKY/WX    TMP DP  RH WIND       PRES   REMARKS
LINCOLN        MOCLDY    66  45  46 S20G28    29.96F
OMAHA EPPLEY   MOCLDY    64  44  48 S16       29.99S
FALLS CITY     MOCLDY    64  46  52 S13       30.04S
$$

NEZ044-045-051>053-067-200900-
OMAHA AREA

CITY           SKY/WX    TMP DP  RH WIND       PRES   REMARKS
OMAHA EPPLEY   MOCLDY    64  44  48 S16       29.99S
OFFUTT AFB     MOCLDY    63  46  53 SE10      30.00S
$$



USA.gov is the U.S. government's official web portal to all federal, state and local government web resources and services.